Torna al catalogo

COSMOS 374 DEB

AttivoLEO
NORAD 4711·DEBRIS·🇷🇺 Russia

Lanciato Oct 23, 1970 da Baikonur Cosmodrome

Loading…

Prossimi Passaggi (prossime 24 ore)

TLE

AggiornatoSource: Space-Track

Epoca: Sep 14, 2026, 05:11 UTC

1 04711U 70089S   26257.21610135  .00000805  00000-0  22770-3 0  9992
2 04711  63.1161 337.6039 0815295  83.6788 285.6356 13.38856268666692

Traccia COSMOS 374 DEB in tempo reale con AllMySat

Download on the App Store